Theta_e
323 321 318 312 314 314 314 314 315 316 315 315 311 309 308 307 307 307 306 307 308 308 308 309 309 309 310 314 312 309 309 309 310 312 313 314 314 316 317 315 316 316 315 315 314 314 314
323 321 319 316 312 313 313 313 314 315 316 315 315 311 308 308 308 309 309 309 308 308 309 309 309 309 312 316 309 310 309 311 311 312 312 314 314 314 315 315 316 315 315 315 315 316 315
322 323 320 318 317 313 312 313 313 314 315 316 316 315 309 308 308 309 309 309 308 308 308 309 309 309 316 313 309 309 309 310 311 312 312 310 312 315 315 316 313 314 314 314 314 314 315
323 323 323 320 318 317 316 313 312 313 314 316 315 316 312 308 308 308 308 308 308 308 309 310 309 309 316 309 310 310 310 311 311 311 310 309 311 313 315 312 312 314 314 318 315 313 315
323 323 323 324 321 320 318 315 314 312 313 316 316 315 316 309 308 308 308 308 310 310 309 310 311 313 315 309 311 310 309 311 311 310 309 308 311 314 313 316 318 317 318 317 317 312 313
323 323 323 324 324 322 321 318 315 314 312 315 317 316 315 316 315 309 308 309 311 311 310 310 311 315 312 312 310 309 309 309 311 312 314 313 315 317 317 318 320 317 317 317 317 315 312
322 324 323 324 325 324 323 321 318 313 313 314 317 317 315 316 317 313 309 310 313 317 314 314 313 314 313 311 310 312 309 310 312 315 318 315 320 318 314 313 313 313 315 317 318 314 311
322 324 323 324 325 324 324 323 322 317 312 312 317 317 316 316 316 310 311 314 313 314 318 311 311 312 309 309 315 315 310 314 316 319 316 318 321 313 310 311 312 314 317 319 316 312 312
321 323 323 323 323 323 324 324 323 320 313 311 315 317 316 316 315 313 314 313 311 312 319 315 313 314 312 311 315 316 311 312 315 317 317 319 316 310 310 314 315 317 318 316 315 314 315
321 322 322 323 323 322 322 324 324 321 315 312 312 318 316 315 319 314 313 309 310 313 321 320 317 316 313 312 316 311 309 311 315 316 316 317 311 311 313 315 313 317 312 312 313 315 319
320 321 321 321 321 321 322 323 324 322 316 313 312 317 315 313 316 315 312 309 311 316 337 318 318 313 313 315 315 316 308 311 316 316 315 321 314 314 316 316 311 317 310 312 313 315 316
319 320 320 321 320 321 321 322 323 321 316 314 313 316 315 316 314 310 310 311 316 329 343 321 318 318 318 316 316 315 313 311 311 314 314 316 310 311 314 310 309 310 313 316 315 317 323
315 317 318 319 320 320 322 322 322 318 313 313 313 316 315 314 317 311 313 319 331 331 319 321 321 318 318 319 318 316 317 318 320 323 325 319 317 311 308 312 311 313 320 326 328 328 326
309 311 315 318 320 321 321 320 319 314 313 313 312 316 318 313 313 314 318 327 332 323 322 318 318 319 319 317 318 317 318 320 315 317 321 323 326 315 310 313 316 316 316 323 325 325 323
313 317 318 320 321 321 321 320 316 314 314 314 313 319 320 316 315 315 324 329 328 323 319 320 320 320 321 318 316 317 320 321 318 316 321 321 322 310 308 308 311 316 317 313 317 319 319
316 316 317 319 320 320 320 319 315 314 314 316 315 318 322 317 316 319 325 326 323 317 316 317 321 319 322 320 318 319 321 319 316 314 314 318 321 315 307 307 307 310 310 317 317 323 327
316 316 317 317 319 319 318 316 315 315 316 316 318 319 317 315 315 322 326 325 319 313 313 317 320 319 320 319 318 319 320 317 313 311 312 316 317 319 313 314 318 309 313 311 313 317 326
316 315 315 316 316 316 316 315 316 317 318 319 318 322 315 316 323 321 323 319 310 314 312 314 314 317 318 318 319 319 320 319 312 311 314 315 317 321 322 312 309 311 315 315 322 326 320
315 315 315 315 315 316 316 316 317 317 317 316 323 321 316 317 322 322 321 319 316 315 314 314 316 315 315 316 319 319 318 315 311 311 314 313 318 322 324 315 311 313 314 312 316 319 320
316 316 316 316 316 316 315 316 316 316 316 315 320 323 319 319 318 321 321 322 320 314 315 313 315 313 315 316 316 317 316 315 310 310 307 310 315 320 326 325 321 318 316 316 316 319 318
311 312 313 313 314 315 315 315 316 316 316 315 320 322 317 322 321 321 320 321 321 321 316 313 316 315 318 319 319 319 317 315 311 309 310 314 317 318 319 319 320 321 320 321 317 315 319
306 307 308 309 311 313 314 314 315 316 316 316 321 321 317 320 319 319 319 321 321 321 321 321 316 318 316 316 317 316 316 317 318 309 310 312 316 314 318 319 319 320 320 320 320 320 319
299 300 302 305 307 308 312 313 314 316 315 317 316 313 314 318 319 319 320 320 320 318 317 316 315 315 317 317 316 315 314 314 313 316 310 311 313 314 320 319 319 321 319 319 318 316 314
298 299 299 299 300 302 305 308 311 313 311 312 314 313 315 318 318 318 318 317 317 317 317 315 314 315 315 312 313 314 314 315 315 316 316 313 312 314 319 319 323 318 310 313 312 305 301
296 297 298 298 298 298 298 300 303 306 308 309 312 311 313 317 316 315 316 317 317 316 316 316 315 314 313 313 315 318 319 318 318 317 317 318 313 316 318 321 320 318 306 307 311 301 294
296 296 296 296 297 297 297 297 298 301 303 305 309 311 312 315 316 315 317 317 317 317 317 317 314 311 311 314 316 319 320 318 319 319 306 309 315 316 317 320 321 306 299 296 300 307 291
295 295 295 296 296 296 296 297 296 298 300 302 306 310 311 313 313 312 314 316 314 315 316 314 314 311 311 316 318 318 320 318 322 320 317 313 315 316 316 319 315 291 292 294 311 299 289
294 295 295 295 295 295 295 296 296 297 299 300 303 306 310 312 312 311 310 313 312 313 316 314 314 313 312 315 317 317 318 318 316 316 317 317 319 316 317 319 318 287 293 297 288 288 286
293 294 294 294 294 294 295 295 296 296 298 299 301 303 307 309 310 311 312 312 312 312 313 313 314 313 313 313 311 311 312 310 314 320 314 318 303 308 298 295 287 285 286 285 284 285 284
Wind_Speed
24 24 24 26 25 25 24 24 24 21 17 14 11 8 6 5 4 4 4 5 5 3 3 4 5 3 1 2 5 9 9 10 6 5 5 3 1 0 0 3 1 3 3 2 2 4 7
24 27 29 29 27 26 25 24 25 24 19 15 12 9 6 4 3 2 2 3 2 2 1 5 5 2 4 0 4 9 7 7 8 7 8 6 4 3 4 2 3 2 2 3 4 6 6
24 27 28 28 28 27 26 25 25 26 22 16 13 8 7 3 1 0 1 1 0 2 4 5 4 3 3 4 4 7 5 4 6 6 3 5 3 3 1 3 1 1 5 6 8 4 4
22 25 26 26 27 28 28 28 26 26 25 18 15 9 8 3 1 2 2 2 4 5 5 5 3 3 2 1 3 7 5 2 4 4 4 3 4 4 3 1 3 3 4 5 7 4 3
20 22 25 25 26 28 29 29 28 27 27 22 15 11 7 4 3 4 4 5 3 7 4 4 2 4 1 1 3 7 5 3 2 1 2 1 1 1 4 4 5 5 7 7 5 5 3
18 20 23 23 25 26 29 29 30 29 28 24 18 13 11 6 5 6 6 7 7 6 3 3 3 4 2 2 3 5 4 3 2 3 3 3 3 4 1 6 4 8 7 8 9 1 8
17 18 20 21 23 25 27 29 31 31 30 25 20 15 14 11 6 7 4 3 4 4 3 3 3 2 1 5 3 5 3 3 3 5 3 1 4 3 3 3 3 5 9 13 11 4 9
15 17 19 21 22 23 25 28 30 31 31 29 21 16 15 9 3 5 1 2 3 3 1 1 1 1 1 3 3 5 6 3 3 3 2 5 3 2 1 2 5 7 11 10 6 2 8
14 16 18 20 22 24 25 27 29 31 32 31 23 18 15 6 3 6 7 4 2 3 4 2 1 2 1 3 2 4 7 2 2 3 3 4 3 2 3 4 7 8 8 10 9 16 9
12 15 17 19 22 24 26 26 28 31 31 32 25 18 14 5 2 2 3 3 3 3 4 4 2 2 2 2 3 2 4 3 2 4 3 4 4 3 5 7 2 9 3 6 12 10 5
13 14 16 19 20 23 24 26 27 29 31 32 28 18 13 12 2 2 2 2 3 2 4 3 2 0 1 3 4 3 1 2 4 2 2 0 4 5 6 4 2 4 4 9 10 9 9
13 14 16 18 20 22 23 25 27 29 31 30 28 16 12 5 5 3 2 3 2 3 5 1 1 2 4 3 2 1 2 2 1 2 5 4 1 3 3 2 5 9 8 12 4 4 5
14 15 17 18 19 21 22 23 26 28 29 29 25 14 11 7 3 5 4 3 3 4 2 2 1 2 3 3 3 2 2 6 4 4 5 5 5 2 2 4 5 5 9 4 3 4 7
15 15 16 17 18 18 19 22 25 26 28 29 22 11 6 8 7 7 3 3 5 2 1 1 2 5 5 1 4 2 3 5 7 5 5 4 4 7 8 3 3 3 3 4 7 10 15
12 12 14 15 15 15 17 20 24 24 26 25 20 6 1 7 9 6 4 4 4 3 3 4 4 5 4 3 3 3 6 5 1 9 5 4 5 3 1 1 2 4 5 3 6 12 6
11 13 13 13 12 13 16 21 23 24 26 25 11 5 1 8 9 2 3 4 2 3 2 2 5 1 5 1 4 2 3 3 2 3 1 2 8 2 4 2 4 5 2 4 4 5 10
13 12 10 11 12 13 17 19 20 23 25 20 5 4 1 9 4 3 5 2 2 1 2 3 4 6 8 8 6 8 7 1 2 4 3 3 4 2 3 9 5 4 4 5 2 5 4
14 11 11 11 12 13 14 15 18 21 25 16 6 4 3 6 3 1 5 1 2 2 2 4 4 6 7 8 8 7 10 5 3 6 4 3 5 9 17 5 3 4 9 11 4 4 7
15 14 13 13 13 13 14 15 16 19 20 11 6 4 3 3 4 5 1 2 3 3 4 4 4 6 1 4 7 10 7 2 5 6 4 4 4 7 7 1 1 4 4 4 11 7 10
16 17 17 17 16 16 15 15 15 14 13 9 4 4 3 2 1 4 5 10 4 3 4 4 4 3 5 8 11 9 6 2 3 5 1 4 6 12 12 19 13 6 8 12 10 4 10
4 7 11 14 15 16 15 13 12 10 9 5 3 1 2 4 5 6 5 8 12 15 5 3 4 10 13 9 12 16 12 10 6 5 4 4 6 12 19 23 22 24 21 19 15 20 11
11 10 9 8 8 10 12 13 12 10 8 3 4 3 2 6 6 10 10 12 16 17 16 15 10 14 9 12 13 16 15 12 11 5 4 2 3 3 10 19 20 26 23 23 23 23 23
15 15 14 14 14 13 11 10 9 10 9 5 3 2 2 4 7 7 11 16 9 6 8 8 7 7 10 12 10 12 12 13 12 9 8 6 4 4 16 13 9 11 21 22 18 9 8
13 13 14 15 16 16 16 14 12 11 6 8 4 3 3 6 9 8 11 11 13 13 13 8 8 13 10 4 11 16 19 21 22 21 17 9 6 3 9 3 8 3 8 5 11 12 12
13 14 14 14 15 15 15 14 14 13 11 7 13 5 2 4 7 8 13 16 15 15 17 18 16 15 6 4 5 6 4 6 12 22 19 18 7 5 4 7 12 13 7 6 6 6 12
14 15 15 15 16 16 17 17 16 13 13 12 14 17 4 2 7 13 14 15 10 13 14 17 8 2 3 3 3 4 4 5 6 3 3 4 11 6 3 5 7 6 10 13 7 4 11
16 16 17 17 18 18 17 18 17 16 14 12 10 8 7 4 5 6 6 6 4 2 4 2 2 4 6 5 5 5 6 3 5 6 4 3 3 9 11 5 1 11 16 9 3 5 9
17 17 17 17 18 19 19 18 18 17 14 13 14 12 11 4 8 6 4 6 2 2 5 2 1 3 2 5 4 4 4 4 3 3 1 3 3 5 5 7 7 20 4 4 5 5 8
18 18 18 18 18 18 19 19 18 17 15 14 13 14 16 12 5 8 17 22 12 14 2 5 3 3 4 3 2 1 3 3 2 3 6 4 3 2 4 3 7 10 10 8 7 6 9
Wind_Direction
28 28 29 33 32 30 29 28 26 21 20 26 27 27 29 35 53 74 95 102 97 85 47 17 346 314 261 196 35 342 349 360 1 25 22 353 345 282 107 98 105 67 159 205 207 235 257
29 32 34 34 32 31 29 27 25 24 23 24 22 19 20 23 42 76 98 108 98 39 59 1 358 5 272 306 340 343 353 8 19 29 36 27 50 38 88 64 318 76 212 229 221 251 257
27 29 32 32 32 31 28 26 24 23 20 18 19 19 14 6 8 8 224 237 302 320 303 318 328 289 19 58 353 356 3 18 15 16 34 29 15 298 283 151 124 243 259 213 223 235 273
28 25 26 29 30 30 28 26 23 21 18 15 15 16 12 3 326 264 250 257 296 298 297 306 292 261 32 239 335 2 2 341 33 35 70 73 38 83 345 118 210 263 242 305 139 205 160
26 24 20 23 26 27 26 25 23 20 17 14 10 11 2 2 318 273 263 272 285 331 256 325 269 267 120 326 324 350 356 335 297 66 52 116 310 72 189 260 218 207 323 325 321 178 292
24 22 19 19 22 22 22 21 20 18 16 14 10 5 360 327 329 292 266 269 269 318 284 263 267 239 156 356 323 332 330 332 286 253 231 234 227 245 259 336 349 326 321 323 312 337 266
16 18 13 15 18 18 16 17 17 15 13 11 8 3 354 343 307 329 257 264 228 191 60 18 31 331 0 331 296 359 345 280 239 235 279 67 261 345 19 12 343 314 302 304 315 22 303
5 6 6 9 11 13 14 12 12 12 11 9 6 2 357 350 343 360 101 286 36 352 207 95 327 270 315 341 268 34 347 268 267 281 296 228 279 66 59 292 287 293 301 312 352 13 311
355 356 359 1 4 5 8 8 7 8 8 8 5 2 359 5 13 34 63 63 51 341 268 147 9 304 342 308 307 346 345 317 314 257 319 291 64 139 239 267 291 297 297 322 314 318 273
339 345 351 353 356 359 0 3 4 4 5 5 3 0 2 2 81 37 51 12 12 344 259 133 180 138 224 313 237 15 12 334 224 303 303 289 126 244 263 277 280 301 55 300 303 322 310
326 334 340 344 349 352 354 357 1 1 1 2 360 359 2 29 26 33 327 346 346 290 295 95 139 9 305 275 336 143 42 220 279 299 254 80 216 232 260 278 188 317 322 299 304 285 303
314 322 330 335 339 344 348 353 359 358 356 357 357 357 360 11 43 29 359 333 303 234 252 164 283 285 275 198 206 290 228 198 338 261 232 279 72 253 313 263 237 310 286 260 268 266 246
305 314 320 326 332 337 344 352 357 356 354 353 353 352 12 24 11 337 334 253 256 243 114 127 293 307 307 255 247 250 237 221 250 274 236 179 212 156 236 266 198 253 309 303 251 226 282
309 312 318 324 329 335 347 350 353 354 352 350 349 348 345 22 351 340 275 246 260 65 294 105 258 264 250 189 203 229 253 259 214 229 290 279 257 193 165 264 320 311 300 278 299 306 304
323 329 334 337 339 343 341 345 348 351 349 348 344 338 334 337 348 346 275 263 321 3 11 322 265 252 207 203 277 263 231 277 322 201 240 274 244 132 173 302 293 135 225 34 285 271 276
316 322 326 335 337 339 336 340 344 349 348 342 339 308 261 335 338 293 270 276 329 21 340 303 279 312 303 14 259 237 264 121 170 208 249 13 282 165 113 192 209 250 6 240 203 276 279
307 312 317 319 324 327 328 338 344 347 349 343 330 296 334 335 332 237 255 290 298 182 243 248 297 286 277 300 271 283 288 145 194 175 232 283 229 184 172 203 214 183 216 213 310 262 258
293 301 311 318 324 327 332 338 344 347 351 354 317 286 343 349 265 230 262 328 10 257 204 252 280 273 268 299 270 270 263 249 164 174 212 201 294 267 274 82 6 300 267 220 209 204 241
286 292 298 304 310 314 320 326 334 341 355 336 316 283 323 343 274 248 161 266 266 235 232 203 245 231 239 262 282 247 250 83 197 202 225 173 224 298 274 116 82 266 257 252 245 281 243
284 289 290 292 296 301 305 312 320 331 345 344 289 298 188 228 326 294 286 290 250 211 260 241 277 241 250 253 242 270 262 180 210 228 168 169 247 244 258 280 300 256 229 231 218 228 259
314 304 298 301 301 298 298 304 312 320 337 338 232 296 0 276 252 301 286 290 279 287 217 242 235 242 259 274 275 261 271 279 209 180 188 208 237 247 250 261 275 271 267 251 219 230 240
339 336 343 329 314 306 295 285 287 300 315 262 287 283 183 287 270 272 265 262 279 284 284 274 253 282 299 261 272 304 305 293 289 158 191 182 249 249 260 262 261 265 263 263 257 254 246
343 336 331 327 323 319 310 312 300 268 248 259 213 250 265 252 251 267 266 271 268 307 274 271 290 297 277 280 304 291 272 267 248 245 209 185 214 189 273 287 299 274 258 246 247 251 297
355 351 348 342 329 317 315 308 299 293 290 261 253 245 228 252 234 232 259 268 269 265 256 261 276 267 275 305 294 281 267 261 257 251 230 204 200 188 276 247 251 281 41 8 86 54 21
342 340 338 341 343 339 333 325 321 307 299 299 261 225 202 249 220 241 255 264 275 265 262 259 265 271 334 316 281 283 269 253 243 248 241 227 191 234 241 226 286 298 32 27 355 74 26
342 339 337 337 336 338 336 330 323 322 327 305 281 252 258 271 223 235 253 261 258 264 276 273 243 219 154 232 212 246 240 298 278 224 55 267 250 213 185 252 264 66 338 350 309 171 18
336 332 330 329 326 327 327 330 326 322 326 316 277 268 251 250 216 189 222 236 184 237 267 324 226 213 184 201 224 223 250 236 251 247 210 192 213 228 233 255 192 350 314 311 205 19 10
330 329 327 326 326 325 325 324 322 317 314 314 278 276 247 256 265 214 238 234 155 204 242 192 274 190 215 229 221 195 239 211 255 303 229 228 264 215 216 222 236 356 37 359 1 11 12
323 322 322 320 320 321 322 320 318 314 305 300 280 271 269 246 282 305 269 258 248 262 258 193 205 164 212 237 268 281 246 220 233 271 196 233 347 331 11 66 86 47 61 56 14 13 9